Location: *
(44.9308°N, 123.0197°W)
Time: 22:13:57
(UTC+00:00)

Cosmos 2227 Rocket - Pass Details

Date: 09 April 2020
Orbit: 837 x 847 km, 71.0° (Epoch: 02 June)

Event Time Altitude Azimuth Distance (km) Brightness Sun altitude
Exits shadow 12:40:34 - 278° (W) 2,559 4.2 -10.4°
Reaches altitude 10° 12:41:03 10° 282° (WNW) 2,458 4.1 -10.3°
Maximum altitude 12:44:20 16° 318° (NW) 2,093 4.1 -9.8°
Drops below altitude 10° 12:47:38 10° 354° (N) 2,468 4.8 -9.2°
Sets 12:51:12 0° 17° (NNE) 3,408 5.9 -8.6°
